DW7103 Yelm WA US current weather conditions

sailwx.info

Wind from 065

Air temperature 7.2° C
Dewpoint 2.1° C

Last reported at 2019-Dec-05 14:00 UTC.
Time now 2019-Dec-05 14:46 UTC

Location: N 46°55' W 122°38'.
View on Google Maps.

See reports from other nearby stations

  
Tides and Currents Weather Stations Pressure Air Temp Water Temp Dewpoint Dewpoint Depression Visibility Wind Speed Wind Dir Waves Ship Positions
date/time (UTC)wind fromknots sea level pressurealtimeterstation pressurevisibilityair tempwater tempwave heightnotes
2019-Dec-05 14:00 065 7.2
2019-Dec-05 13:45 065 7.2
2019-Dec-05 13:30 065 7.2
2019-Dec-05 13:15 065 7.2
2019-Dec-05 13:01 065 7.2
2019-Dec-05 12:47 065 7.2
2019-Dec-05 12:31 065 7.2
2019-Dec-05 12:17 065 7.2
2019-Dec-05 12:01 065 7.2
2019-Dec-05 11:46 080 7.2
2019-Dec-05 11:33 080 7.8
2019-Dec-05 11:16 080 7.8
2019-Dec-05 11:01 025 7.2
2019-Dec-05 10:46 026 7.2
2019-Dec-05 10:31 018 7.8
2019-Dec-05 10:16 015 7.8
2019-Dec-05 10:01 015 7.8
2019-Dec-05 09:46 015 7.8
2019-Dec-05 09:32 015 7.8
2019-Dec-05 09:16 015 7.8
2019-Dec-05 09:01 015 7.8
2019-Dec-05 08:46 015 7.8
2019-Dec-05 08:31 015 7.8
2019-Dec-05 08:16 015 7.8
2019-Dec-05 08:01 015 7.8
2019-Dec-05 07:45 015 8.3
2019-Dec-05 07:30 015 7.8
2019-Dec-05 07:16 310 7.8
2019-Dec-05 07:01 310 8.3
2019-Dec-05 06:46 310 8.3
2019-Dec-05 06:31 310 8.3
2019-Dec-05 06:16 309 8.3
2019-Dec-05 06:01 060 8.3
2019-Dec-05 05:46 355 8.3
2019-Dec-05 05:31 355 8.3
2019-Dec-05 05:15 355 8.9
2019-Dec-05 05:01 355 8.9
2019-Dec-05 04:46 344 8.9
2019-Dec-05 04:30 344 8.9
2019-Dec-05 04:15 309 9.4
2019-Dec-05 04:00 309 8.9
2019-Dec-05 03:45 309 8.9
2019-Dec-05 03:30 309 8.9
2019-Dec-05 03:15 309 8.9
2019-Dec-05 03:00 014 8.9
2019-Dec-05 02:46 014 9.4
2019-Dec-05 02:30 023 9.4
2019-Dec-05 02:15 024 9.4
2019-Dec-05 02:00 024 10.0
2019-Dec-05 01:45 024 10.0
2019-Dec-05 01:30 024 10.0
2019-Dec-05 01:15 024 10.0
2019-Dec-05 01:00 337 10.0
2019-Dec-05 00:45 337 10.0
2019-Dec-05 00:30 337 10.6
2019-Dec-05 00:16 337 10.6
2019-Dec-05 00:02 337 10.6
2019-Dec-04 23:46 337 11.1
2019-Dec-04 23:32 337 11.1
2019-Dec-04 23:17 337 11.1
2019-Dec-04 23:02 337 11.1
2019-Dec-04 22:46 337 11.1
2019-Dec-04 22:32 337 11.1
2019-Dec-04 22:16 337 11.1
2019-Dec-04 22:02 355 11.1
2019-Dec-04 21:47 345 11.7
2019-Dec-04 21:31 204 11.7
2019-Dec-04 21:16 205 11.1
2019-Dec-04 21:00 205 11.1
2019-Dec-04 20:46 205 11.1
2019-Dec-04 20:31 206 11.1
2019-Dec-04 20:16 207 0 10.6
2019-Dec-04 20:01 200 1 10.6
2019-Dec-04 19:46 207 1 10.6
2019-Dec-04 19:31 210 0 10.0
2019-Dec-04 19:16 209 10.0
2019-Dec-04 19:01 208 0 10.0
2019-Dec-04 18:46 201 1 9.4
2019-Dec-04 18:32 201 9.4
2019-Dec-04 18:16 201 9.4
2019-Dec-04 18:00 201 9.4
2019-Dec-04 17:45 201 8.9
2019-Dec-04 17:30 201 8.3
2019-Dec-04 17:15 201 8.3
2019-Dec-04 17:00 201 7.8
2019-Dec-04 16:45 201 7.2
2019-Dec-04 16:30 201 7.2
2019-Dec-04 16:15 201 6.7
2019-Dec-04 16:00 201 6.7
2019-Dec-04 15:45 201 6.7
2019-Dec-04 15:30 201 7.2
2019-Dec-04 15:16 201 7.2
2019-Dec-04 15:01 201 7.2
2019-Dec-04 14:46 201 6.7
2019-Dec-04 14:32 201 7.2
2019-Dec-04 14:17 201 7.2
2019-Dec-04 14:01 201 7.2
2019-Dec-04 13:47 201 7.2
2019-Dec-04 13:31 201 7.2
2019-Dec-04 13:17 201 7.2
2019-Dec-04 13:02 201 7.8
2019-Dec-04 12:46 201 7.2
2019-Dec-04 12:31 201 7.2
2019-Dec-04 12:16 201 6.7
2019-Dec-04 12:01 201 6.7
2019-Dec-04 11:46 201 6.7
2019-Dec-04 11:31 201 6.7
2019-Dec-04 11:15 201 6.7
2019-Dec-04 11:00 201 6.7
2019-Dec-04 10:46 201 6.7
2019-Dec-04 10:31 201 6.7
2019-Dec-04 10:16 201 7.2
2019-Dec-04 10:01 201 7.2
2019-Dec-04 09:46 201 7.2
2019-Dec-04 09:31 201 7.2
2019-Dec-04 09:16 201 7.2
2019-Dec-04 09:01 201 7.2
2019-Dec-04 08:46 201 7.2
2019-Dec-04 08:31 201 7.2
2019-Dec-04 08:16 201 7.2
2019-Dec-04 08:01 201 7.2
2019-Dec-04 07:45 201 7.2
2019-Dec-04 07:30 201 7.2
2019-Dec-04 07:16 201 6.7
2019-Dec-04 07:00 201 6.7
2019-Dec-04 06:45 201 7.2
2019-Dec-04 06:30 201 7.2
2019-Dec-04 06:15 201 7.2
2019-Dec-04 06:00 201 7.2
2019-Dec-04 05:45 201 7.2
2019-Dec-04 05:30 201 7.2
2019-Dec-04 05:15 201 7.8
2019-Dec-04 05:00 201 7.8
2019-Dec-04 04:45 201 8.3
2019-Dec-04 04:30 201 8.3
2019-Dec-04 04:15 201 8.9
2019-Dec-04 04:00 201 8.9
2019-Dec-04 03:45 201 8.9
2019-Dec-04 03:30 201 8.9
2019-Dec-04 03:15 201 8.9
2019-Dec-04 03:00 201 8.3
2019-Dec-04 02:45 201 8.3
2019-Dec-04 02:30 201 8.3
2019-Dec-04 02:15 201 8.3
2019-Dec-04 02:00 201 8.3
2019-Dec-04 01:47 201 8.9
2019-Dec-04 01:31 201 8.9
2019-Dec-04 01:17 201 9.4
2019-Dec-04 01:02 201 9.4
2019-Dec-04 00:47 201 10.0
2019-Dec-04 00:32 201 10.0
2019-Dec-04 00:16 201 10.6
2019-Dec-04 00:01 201 10.6
2019-Dec-03 23:46 200 10.6
2019-Dec-03 23:31 200 11.1
2019-Dec-03 23:16 200 11.1
2019-Dec-03 23:01 198 11.1
2019-Dec-03 22:46 198 11.1
2019-Dec-03 22:32 198 0 11.1
2019-Dec-03 22:16 204 10.6
2019-Dec-03 22:01 204 10.6
2019-Dec-03 21:46 204 10.6
2019-Dec-03 21:31 204 0 10.6
2019-Dec-03 21:16 185 0 10.6
2019-Dec-03 21:00 198 0 10.0
2019-Dec-03 20:45 218 2 10.0
2019-Dec-03 20:30 169 10.0
2019-Dec-03 20:15 171 9.4
2019-Dec-03 20:00 171 8.9
2019-Dec-03 19:45 171 8.3
2019-Dec-03 19:31 171 8.3
2019-Dec-03 19:15 172 7.8
2019-Dec-03 19:00 175 7.8
2019-Dec-03 18:45 204 7.2
2019-Dec-03 18:30 205 6.7
2019-Dec-03 18:15 205 6.1
2019-Dec-03 18:00 205 5.6
2019-Dec-03 17:48 205 5.0
2019-Dec-03 17:32 205 3.9
2019-Dec-03 17:18 205 3.3
2019-Dec-03 17:01 205 2.8
2019-Dec-03 16:46 205 2.8
2019-Dec-03 16:31 205 2.8
2019-Dec-03 16:15 205 2.2
2019-Dec-03 16:00 205 1.7
2019-Dec-03 15:45 205 1.7
2019-Dec-03 15:30 205 1.1
2019-Dec-03 15:16 205 1.1
2019-Dec-03 15:00 205 1.1
2019-Dec-03 14:46 205 0.6
2019-Dec-03 14:30 205 0.6
2019-Dec-03 14:15 205 0.6
2019-Dec-03 14:01 205 0.6